GFSFLT1_500_spd_120.txt.gz
Wind_Speed
17 14 13 11 9 7 5 1 2 4 5 6 5 4 3 4 3 5 4 1 2 3 6 8 9 11 13 15 15 15 16 16 17
17 16 14 12 10 8 6 3 1 4 6 5 5 4 4 5 5 5 4 1 2 4 5 7 9 12 14 16 17 16 17 17 18
18 17 15 14 12 9 7 4 3 7 6 5 5 5 5 6 7 6 5 3 2 4 6 8 10 13 15 16 18 18 18 19 20
19 18 17 14 13 11 9 7 5 8 6 5 5 5 6 7 7 7 6 5 4 5 7 9 11 13 15 17 18 19 19 20 21
22 19 17 16 14 13 10 8 6 8 7 6 5 6 6 7 8 8 7 6 6 7 9 11 13 15 17 19 20 20 21 21 22
24 20 18 18 16 15 12 10 8 10 7 7 5 6 7 8 8 8 8 7 8 9 10 12 14 16 18 20 22 22 23 23 23
25 22 20 19 18 16 14 13 11 11 8 7 6 7 7 8 8 8 8 8 9 10 11 13 15 18 20 20 22 22 23 24 23
25 23 21 20 19 18 17 15 12 11 9 8 8 8 8 9 9 9 9 10 11 12 13 15 17 19 21 22 24 23 24 24 24
29 26 24 23 23 21 19 16 14 12 11 10 10 10 9 9 9 10 11 12 13 14 16 18 20 21 23 24 25 27 27 27 27
31 28 26 25 25 23 20 17 15 14 14 13 14 13 13 13 12 13 13 14 15 17 18 20 22 24 26 26 27 29 28 28 30
32 31 28 27 26 23 21 18 17 17 16 15 16 16 17 17 16 16 16 17 19 20 21 24 24 26 28 29 29 29 29 31 36
35 33 30 28 26 24 22 20 19 18 18 17 19 20 20 20 20 20 20 20 22 24 25 26 27 29 30 30 31 32 34 35 40
35 34 31 29 26 25 24 22 21 20 20 21 22 23 22 23 23 22 22 23 25 26 27 29 29 30 28 32 34 37 40 34 30
36 34 32 31 29 26 26 24 22 24 23 23 24 24 24 24 25 24 25 26 27 28 29 30 31 31 31 35 37 36 33 33 30
37 35 34 32 30 27 27 26 26 26 26 26 25 24 25 25 25 26 27 28 28 28 29 31 34 33 33 34 33 35 36 37 35
37 36 34 31 32 32 31 28 29 28 27 26 23 22 22 24 25 25 27 29 28 28 28 31 34 33 34 37 38 39 37 34 35
37 35 35 34 34 32 30 28 29 29 25 24 24 24 24 22 22 23 25 26 27 30 34 32 32 33 36 35 38 38 34 36 39
40 40 39 38 35 33 32 31 32 28 25 24 24 24 23 25 25 27 27 29 30 32 34 32 33 30 30 31 33 34 37 40 40
45 43 41 38 36 34 34 32 29 25 25 24 25 28 29 27 25 23 22 23 23 23 26 25 24 27 30 33 36 36 42 43 43
44 40 38 38 35 34 35 32 30 29 29 32 30 22 12 16 20 27 21 19 23 28 27 24 28 30 31 31 35 35 40 45 47

GFSFLT1_500_spd_123.txt.gz
Wind_Speed
15 16 17 15 12 9 7 5 2 1 3 4 4 2 3 5 5 6 6 2 0 2 4 6 8 10 12 14 15 16 16 17 18
17 18 18 17 14 11 9 7 3 3 6 6 4 3 4 5 6 7 6 3 2 3 5 7 8 11 13 15 17 18 18 18 19
21 19 19 17 16 14 11 9 5 6 8 6 4 4 4 6 7 7 6 4 3 4 6 8 10 12 14 16 18 20 20 21 22
23 21 21 19 17 16 13 11 8 6 8 7 5 4 6 7 8 9 8 7 6 6 7 9 11 14 16 17 19 21 21 21 23
26 23 22 20 19 18 15 13 10 6 8 8 6 6 7 9 10 10 10 9 8 7 8 10 12 14 16 19 20 22 23 23 23
28 25 23 21 20 19 17 14 11 8 10 9 8 8 8 9 10 10 9 10 10 10 10 12 14 17 18 20 22 23 25 27 26
29 28 25 22 21 20 18 15 13 10 12 10 10 9 9 9 10 10 11 11 11 11 13 15 16 18 20 22 24 25 26 29 30
30 28 25 23 22 21 19 16 15 13 12 12 10 9 10 9 10 11 12 12 12 13 14 16 18 20 22 24 26 28 29 30 31
29 28 27 26 23 22 20 18 17 15 14 12 12 10 11 10 10 12 11 12 14 14 15 17 20 23 25 26 28 30 33 33 33
32 30 28 27 25 23 22 20 19 17 15 14 14 13 13 12 12 13 14 15 16 17 19 21 23 25 26 28 30 31 32 34 34
33 32 30 28 27 25 25 23 22 20 17 16 15 15 14 15 15 17 17 18 19 22 23 25 26 27 28 30 32 31 33 34 36
34 33 31 30 29 27 26 25 24 22 19 18 17 17 17 18 19 20 21 22 24 24 26 26 28 29 30 32 33 32 33 34 35
37 34 33 32 30 29 28 26 25 22 21 20 20 20 20 21 22 22 24 23 25 26 28 29 30 30 31 33 34 34 36 33 35
36 35 34 33 32 31 29 27 26 23 23 23 23 22 22 23 22 23 24 26 26 28 28 29 29 29 31 34 35 36 35 34 36
37 37 36 35 34 32 30 29 27 25 26 24 24 24 23 24 24 24 25 25 26 27 27 28 28 28 31 32 33 35 35 36 38
38 38 38 37 36 34 33 30 28 28 27 26 26 24 26 28 27 24 25 27 27 27 26 25 27 30 33 34 31 32 29 33 35
39 38 38 37 36 35 32 30 29 30 29 29 25 27 29 26 26 25 25 24 25 25 26 26 25 27 23 23 23 24 26 31 33
41 40 39 38 37 35 33 34 32 32 31 28 26 27 26 28 25 26 26 26 26 25 23 21 21 21 20 22 24 26 29 29 32
42 40 40 40 37 37 36 35 34 32 30 28 27 27 26 28 29 31 29 25 21 22 19 17 20 19 20 25 30 32 34 35 37
43 43 41 40 40 40 39 37 36 35 31 29 31 29 32 28 25 26 25 21 22 20 19 18 19 22 25 28 36 37 38 39 41

GFSFLT1_500_spd_126.txt.gz
Wind_Speed
19 16 15 15 14 12 10 8 6 2 2 5 5 3 3 5 5 7 7 5 2 1 4 7 8 10 13 15 17 18 18 19 20
21 18 17 17 16 14 12 10 8 3 5 8 6 4 4 5 7 8 8 5 3 1 5 7 9 11 13 16 17 19 20 21 22
24 21 20 19 18 16 14 13 11 6 7 8 6 5 5 7 8 9 9 7 4 3 4 7 9 12 14 16 19 20 22 24 25
27 24 22 20 19 18 16 14 13 8 7 8 7 7 6 8 9 10 10 7 6 5 5 7 10 14 16 18 20 23 24 25 28
30 27 23 22 22 20 19 16 14 10 7 9 8 8 8 8 9 10 10 9 8 8 8 10 12 15 18 20 22 24 26 28 29
33 27 25 23 22 22 20 17 14 12 9 9 10 9 9 9 10 11 10 9 10 10 11 13 14 17 19 22 24 26 28 30 31
33 30 27 24 23 21 20 18 16 14 12 11 11 9 9 10 10 10 10 10 11 11 12 14 16 18 21 23 25 26 28 29 31
34 31 28 25 22 21 22 20 19 16 14 12 11 10 9 9 10 10 11 11 11 12 13 15 17 20 23 25 26 28 29 30 32
35 32 28 26 25 24 23 21 19 17 15 14 12 11 9 8 9 10 10 10 12 13 14 17 20 22 24 26 28 29 30 30 30
36 32 30 28 27 26 24 23 21 18 17 16 13 13 11 11 10 11 12 13 14 15 18 20 23 24 26 28 29 30 31 31 30
37 33 31 30 28 26 26 24 22 20 20 18 15 14 13 13 14 14 14 15 17 18 21 23 25 26 27 29 30 31 33 33 32
37 35 32 30 29 28 26 24 23 22 22 20 17 16 16 15 16 16 16 17 19 21 22 25 26 28 27 27 28 31 33 31 30
37 36 35 32 31 29 27 26 25 25 24 22 19 18 18 18 18 18 19 20 21 23 24 25 26 25 25 26 27 30 29 31 31
40 38 35 33 31 29 28 27 26 26 25 24 21 20 20 20 19 20 21 22 24 25 26 25 25 25 26 26 27 30 32 29 28
44 39 37 33 31 29 29 28 27 27 26 24 23 23 22 21 21 23 24 25 25 24 26 26 26 23 23 27 28 23 23 24 24
44 38 36 33 32 31 31 31 29 29 28 26 26 25 25 23 25 26 25 24 25 26 22 21 22 24 23 21 14 16 19 22 26
44 39 35 32 33 33 32 33 30 30 29 27 28 27 25 26 27 24 25 26 26 24 25 25 23 21 18 18 16 17 20 23 27
43 40 36 35 35 34 34 33 31 31 31 30 29 29 25 29 27 27 27 27 27 27 25 22 20 18 20 16 19 21 24 27 30
43 39 37 37 37 35 35 33 32 32 33 31 31 31 28 31 31 28 30 30 32 31 28 23 22 19 16 17 20 24 30 31 35
43 40 39 38 37 34 34 35 33 34 33 33 32 32 32 32 30 28 33 31 34 28 24 21 19 20 20 20 22 26 32 33 34

GFSFLT1_500_spd_129.txt.gz
Wind_Speed
20 20 16 15 14 12 11 9 9 5 1 5 8 6 5 6 7 8 9 6 3 1 3 5 7 9 12 15 18 20 22 23 25
22 22 18 16 16 15 14 12 10 8 6 7 11 8 7 7 7 9 9 7 5 2 3 5 7 10 14 17 19 21 23 23 24
25 24 22 19 19 17 16 14 12 11 8 9 9 7 8 7 8 9 10 9 7 5 3 6 8 11 15 18 20 21 23 25 26
28 27 25 21 20 20 18 16 14 12 9 8 8 8 8 8 8 10 11 10 8 7 6 7 9 11 15 18 20 22 24 25 27
31 30 27 24 22 22 20 18 16 15 10 7 8 10 9 9 9 10 12 11 10 9 8 9 10 13 16 18 21 23 24 27 27
33 31 29 27 24 23 22 20 18 15 12 7 8 11 10 9 9 10 12 12 11 11 11 11 12 14 17 20 23 24 25 27 27
36 34 29 28 25 24 22 21 20 17 15 10 10 12 11 10 10 11 12 12 11 11 11 12 13 16 19 21 24 25 27 28 27
39 35 28 28 26 24 24 23 21 19 16 12 10 11 11 10 10 11 11 11 11 11 11 13 15 18 20 23 25 26 27 27 28
40 36 30 29 29 27 25 23 22 20 17 13 12 13 12 10 9 9 9 9 10 11 13 16 19 20 22 24 25 26 24 26 27
41 36 32 30 30 28 26 25 23 21 18 15 14 15 14 11 10 11 11 11 13 14 16 17 20 21 23 24 24 24 23 25 25
41 37 34 32 32 30 28 26 24 22 20 17 16 16 15 13 12 12 12 13 14 16 18 19 21 22 24 23 23 25 24 24 24
42 38 37 34 33 32 29 26 25 23 21 19 18 18 17 15 14 14 14 15 17 18 20 21 24 24 23 23 25 26 24 27 27
43 41 39 36 34 31 30 28 26 25 23 21 21 21 19 17 17 17 17 17 19 21 22 24 24 23 23 25 25 22 26 26 21
46 43 41 38 35 32 30 29 29 27 24 22 23 23 21 19 19 19 20 21 22 23 24 25 23 22 23 22 22 23 23 19 18
48 45 43 40 37 33 31 30 29 26 24 23 25 25 23 22 22 22 23 23 23 24 24 24 23 21 22 23 21 19 16 18 21
49 46 44 41 37 32 33 32 29 25 25 25 26 26 25 24 25 24 25 24 24 24 26 26 23 24 27 24 19 14 17 19 22
50 48 45 41 37 35 34 31 28 26 26 28 26 27 27 27 27 26 27 27 25 26 28 26 25 27 27 24 23 19 15 19 23
52 49 45 40 38 36 34 31 29 28 29 28 28 29 29 29 29 28 28 29 28 28 29 30 29 27 28 26 23 17 16 20 25
53 51 44 41 39 38 35 33 32 30 30 29 29 31 30 30 30 30 30 30 31 31 31 35 33 31 27 24 22 20 20 22 25
55 50 45 41 42 40 36 34 32 32 31 30 31 32 31 31 32 32 32 32 34 32 32 32 31 27 25 26 25 24 24 26 28

GFSFLT1_500_spd_132.txt.gz
Wind_Speed
15 16 18 15 15 15 13 10 7 5 4 5 8 13 10 8 7 8 9 8 5 3 3 5 7 9 13 15 17 19 22 23 25
19 18 19 18 17 16 15 13 10 8 7 8 10 11 8 8 8 9 11 9 6 5 4 6 7 9 13 16 18 20 22 24 25
24 21 20 21 19 19 18 15 13 10 9 10 9 10 9 8 9 10 11 11 9 7 5 6 8 9 13 16 19 21 23 24 25
29 25 23 22 21 20 19 17 15 12 12 9 7 9 8 10 10 10 11 13 11 9 8 8 9 11 15 17 19 22 24 25 25
33 30 26 23 24 22 22 19 17 15 15 12 8 7 9 10 10 10 12 13 13 11 10 11 12 13 16 18 21 23 25 25 25
35 34 29 25 25 24 23 22 19 18 16 14 8 8 10 10 10 11 12 13 13 12 12 12 13 14 17 19 22 24 25 25 23
40 38 34 28 25 24 23 23 22 20 18 16 10 8 9 10 10 11 11 12 11 11 12 12 13 16 18 21 22 23 24 22 23
43 40 35 31 26 25 25 25 24 22 19 18 13 9 9 11 10 11 9 10 11 11 10 11 14 18 19 21 23 24 22 23 25
44 41 36 33 31 27 26 25 24 23 21 21 15 11 10 12 11 10 9 8 9 10 11 14 17 19 20 22 24 23 22 26 23
47 44 38 35 33 29 27 26 25 24 23 23 18 14 11 13 12 11 11 11 12 14 15 16 18 20 22 23 23 22 24 26 22
48 45 39 36 35 32 29 28 27 25 24 24 20 15 13 14 14 13 13 13 13 16 17 18 19 22 24 24 22 23 26 21 24
51 47 41 38 38 34 31 29 28 26 27 25 22 18 15 17 16 15 15 15 16 18 20 21 22 24 24 22 22 23 22 24 24
53 49 42 39 39 35 33 31 30 28 28 26 23 21 18 19 18 18 18 18 20 21 22 23 24 25 24 23 22 22 23 24 19
56 52 45 42 40 36 35 32 31 30 28 27 25 23 20 21 21 21 21 21 23 23 24 24 25 25 25 25 24 26 24 22 18
58 56 48 44 41 38 35 33 32 32 29 28 26 23 21 23 24 24 24 24 25 25 25 25 25 24 26 26 27 28 24 20 20
61 58 52 46 41 38 38 35 34 32 28 28 27 24 23 24 25 27 26 27 28 27 27 27 26 25 27 28 29 28 25 26 22
63 59 54 47 43 41 39 37 34 32 29 30 28 26 24 26 27 28 29 29 28 29 28 28 28 27 30 32 32 30 26 24 23
63 60 56 50 45 42 40 38 36 34 32 32 28 27 26 28 29 30 30 30 30 31 30 30 28 28 31 32 33 31 28 24 24
65 61 58 52 47 44 41 40 38 36 34 33 29 29 29 29 30 31 31 32 33 32 32 33 31 26 30 32 32 30 31 26 26
66 66 58 54 47 45 43 41 39 37 36 33 31 31 31 31 32 32 32 33 33 34 35 37 36 33 34 31 27 29 31 30 32

GFSFLT1_500_spd_135.txt.gz
Wind_Speed
20 16 14 15 14 13 11 11 9 6 4 4 6 9 12 9 7 8 9 9 6 5 5 6 8 10 13 16 18 21 23 24 24
22 20 17 16 16 13 12 13 11 9 8 6 8 9 9 10 8 8 9 10 8 7 5 6 8 11 15 17 19 21 24 25 24
24 22 21 18 17 14 14 14 13 13 10 8 7 9 9 8 8 8 9 11 11 9 7 8 9 12 15 18 20 23 24 25 24
26 25 23 23 19 16 13 15 15 15 12 10 8 9 9 8 9 8 9 11 12 11 10 10 11 13 15 18 20 22 24 25 25
29 28 26 24 24 19 16 16 17 17 14 12 9 8 9 10 8 8 9 10 12 12 11 12 13 14 15 18 21 23 25 25 23
31 30 30 27 27 23 19 17 18 19 17 15 13 10 10 11 9 8 9 9 11 13 12 13 14 14 15 19 22 23 25 24 22
33 34 32 29 27 28 22 20 19 20 19 17 16 13 11 10 10 9 9 9 10 10 12 13 13 14 18 21 22 23 25 23 24
36 35 35 33 29 29 28 23 20 21 21 19 18 15 11 10 11 10 9 9 9 10 11 11 12 17 20 22 23 25 24 23 26
39 39 38 37 33 31 30 26 21 22 23 21 20 17 13 10 11 11 11 10 9 10 11 14 17 19 21 23 24 25 23 24 26
41 41 39 40 37 34 32 29 24 24 25 23 22 19 16 12 11 13 12 12 12 13 14 15 17 20 22 24 25 23 23 25 23
44 42 40 42 41 37 34 32 28 25 25 24 23 21 18 15 13 14 15 14 14 15 15 17 19 21 23 26 26 22 23 24 25
45 45 46 46 46 41 36 33 29 26 27 25 24 22 21 17 15 16 17 17 16 18 18 20 21 23 26 27 25 23 24 27 27
48 54 55 51 46 44 39 34 31 28 29 27 26 25 23 20 18 18 19 19 19 20 21 23 23 25 26 26 25 24 25 28 27
49 60 58 54 47 46 40 35 33 31 31 29 28 26 26 23 21 19 21 22 21 22 23 25 25 27 25 24 25 24 27 29 27
54 57 60 61 51 49 42 37 35 34 32 31 30 27 27 24 23 21 23 24 25 24 25 26 28 28 29 28 26 28 31 34 28
66 55 59 58 51 47 43 40 37 35 32 32 31 28 27 26 25 24 25 26 27 26 27 28 29 29 31 30 27 29 32 31 29
67 63 57 54 57 51 47 40 37 36 33 32 33 30 27 27 28 27 28 28 28 28 29 30 30 30 33 33 29 30 33 33 30
75 62 60 57 54 54 47 42 38 37 35 35 33 31 28 31 29 30 30 30 30 30 31 32 31 31 34 34 30 32 34 36 33
71 63 64 61 58 56 49 45 41 40 36 37 34 33 32 32 31 32 32 32 32 32 33 34 33 34 36 36 36 36 35 38 33
70 59 57 60 59 56 51 48 41 40 40 38 38 36 34 33 34 33 34 35 35 34 35 35 35 36 37 36 37 38 39 40 36

GFSFLT1_500_spd_138.txt.gz
Wind_Speed
17 16 13 17 13 9 8 9 7 4 4 3 5 9 11 10 10 7 6 8 7 5 5 6 8 10 12 15 17 20 22 24 25
20 19 16 14 16 12 10 10 9 7 6 5 5 7 10 10 9 8 7 8 9 7 6 6 8 10 13 16 19 21 23 25 25
21 21 20 15 17 15 12 11 11 9 8 8 6 6 8 11 9 9 8 8 10 9 8 8 9 12 14 16 19 21 23 25 26
22 21 21 19 14 18 14 13 13 11 10 10 7 6 5 10 10 10 9 8 10 11 10 10 11 13 15 16 20 23 24 26 27
23 23 22 22 17 17 18 15 15 14 13 12 11 7 5 7 10 9 11 8 9 11 12 12 13 14 16 17 20 23 24 26 26
22 23 24 23 20 17 20 20 17 16 16 14 14 10 7 5 8 9 10 10 9 10 12 13 13 14 15 18 22 23 24 26 25
26 29 24 25 22 19 19 23 22 18 18 17 16 14 11 6 7 8 9 10 10 9 11 12 12 13 16 20 22 22 24 26 24
25 23 30 27 26 23 21 23 26 23 19 19 18 17 15 9 7 7 9 10 10 9 10 11 12 14 18 19 21 23 24 24 24
25 25 28 28 29 30 26 24 26 26 23 21 20 19 17 14 10 8 8 11 10 10 10 13 15 17 19 20 22 24 26 23 23
28 29 27 30 30 33 32 27 27 27 25 23 22 21 19 17 13 11 10 11 12 12 13 15 17 18 20 22 24 26 25 23 24
32 32 31 32 34 30 37 32 30 29 26 24 23 23 22 20 16 14 13 14 13 14 14 16 19 20 22 24 26 24 23 22 25
45 36 36 32 37 34 39 35 32 31 29 26 25 24 24 22 20 17 16 16 16 16 16 18 21 22 24 26 26 24 23 22 25
42 57 37 36 32 35 38 38 36 34 32 30 28 26 26 25 23 20 18 17 18 19 18 21 22 25 25 26 27 26 25 24 26
44 41 42 34 45 41 38 42 40 37 35 34 30 29 27 27 25 22 21 20 20 22 21 23 24 27 27 29 29 30 27 26 28
48 47 41 37 46 47 39 45 42 39 39 36 33 31 29 28 27 25 24 23 23 23 24 25 26 28 29 30 30 31 28 28 28
53 47 44 38 49 41 41 47 49 43 40 37 33 31 30 29 28 27 26 26 26 26 26 27 28 31 31 31 32 33 33 31 30
55 53 47 38 52 54 54 50 53 44 41 38 36 32 31 30 30 30 29 29 29 28 28 30 31 32 34 32 33 35 35 36 36
59 57 47 41 44 42 50 51 57 41 41 40 39 33 30 34 33 32 32 31 31 31 31 32 34 35 35 33 35 36 37 38 38
61 57 47 48 47 55 54 47 47 48 47 43 38 35 33 34 34 34 34 34 34 34 34 35 36 38 38 35 35 38 38 39 39
62 58 54 50 49 55 54 55 51 54 47 42 41 39 37 36 36 38 36 37 37 37 36 38 39 40 39 38 38 41 41 41 41

GFSFLT1_500_spd_141.txt.gz
Wind_Speed
16 15 12 10 16 13 6 6 7 6 7 4 2 5 7 7 7 7 5 6 8 6 5 5 5 8 10 14 16 19 21 23 24
17 17 15 11 12 17 11 7 8 8 8 7 4 3 5 8 6 7 6 5 8 9 8 7 7 9 11 14 16 19 22 24 25
17 17 18 13 11 16 16 10 8 9 9 10 6 3 3 5 7 6 7 6 8 11 11 9 9 11 13 15 16 18 22 23 25
22 18 19 18 14 14 16 14 10 9 11 11 9 5 3 3 5 5 6 6 8 11 12 12 11 12 14 16 17 19 21 22 24
16 21 19 20 18 15 15 17 14 12 11 12 12 9 6 4 4 5 5 6 7 9 12 13 13 13 15 15 17 20 20 23 25
22 17 20 18 20 18 16 18 18 15 13 12 14 13 10 7 4 5 6 7 7 8 10 12 13 13 14 14 19 21 20 22 25
16 20 19 17 14 20 21 19 19 19 16 15 14 15 14 11 7 6 7 8 9 9 9 11 11 12 13 16 19 20 22 23 23
23 19 16 17 16 17 23 25 20 21 20 17 17 17 18 16 12 9 8 9 9 10 10 11 10 11 14 17 19 21 24 25 22
26 20 17 16 19 16 22 25 26 22 22 21 18 18 19 19 17 12 10 10 10 11 12 13 13 14 15 17 20 22 25 24 22
31 25 20 20 20 21 19 23 27 28 25 22 22 20 20 21 20 17 13 12 12 12 13 14 15 17 17 19 22 24 25 23 21
35 30 26 24 25 24 22 23 26 29 28 26 24 23 21 22 23 21 17 15 14 14 15 16 16 19 19 21 23 25 25 22 21
40 35 33 32 30 24 25 24 25 29 32 28 28 26 24 23 24 24 22 19 18 17 17 18 19 21 21 24 25 26 27 25 23
44 42 37 43 37 32 29 33 31 31 35 32 29 30 27 26 25 25 26 23 21 20 20 20 22 24 23 25 28 28 29 28 27
49 46 42 39 34 35 23 29 29 31 34 34 33 31 30 28 26 27 27 27 25 22 23 22 24 26 27 25 29 30 31 29 30
53 49 45 41 36 38 34 33 36 32 39 41 37 33 33 30 30 28 28 30 28 26 26 26 27 28 29 28 29 31 33 31 31
58 54 49 46 40 38 41 35 39 44 39 43 40 36 34 33 32 29 30 31 31 29 29 29 30 32 31 31 32 32 33 34 35
60 56 53 49 45 43 43 42 41 48 46 45 44 38 35 34 33 32 32 33 33 33 32 32 33 35 34 34 33 33 33 34 35
61 60 57 52 48 47 43 45 43 47 44 45 46 44 34 35 37 35 35 36 35 35 34 34 36 37 38 36 36 34 34 35 36
63 61 59 55 50 51 46 47 36 39 40 44 50 50 39 38 39 38 37 37 37 37 37 37 38 39 40 39 39 37 36 38 38
64 60 58 56 53 53 53 52 45 41 39 42 50 47 42 42 42 40 39 40 39 39 39 40 40 41 42 41 41 39 38 39 40

GFSFLT1_500_spd_144.txt.gz
Wind_Speed
15 14 13 13 10 13 10 7 7 7 8 6 2 2 4 5 3 3 3 5 9 10 8 7 6 8 11 13 15 17 19 21 21
16 14 14 15 13 12 15 11 9 9 9 9 6 3 2 3 3 4 4 6 9 11 11 9 9 10 12 15 16 16 19 20 21
20 16 14 15 16 13 15 15 12 11 11 10 9 6 4 2 2 4 5 6 8 11 13 12 12 12 13 15 17 17 19 21 21
19 19 18 16 17 17 15 17 17 13 12 12 12 10 7 6 4 3 5 6 8 10 13 15 14 14 15 15 17 18 20 20 22
13 11 14 18 18 19 18 17 20 17 13 13 13 12 11 9 7 5 5 7 8 10 12 15 16 16 15 15 16 19 20 21 22
16 15 11 13 19 20 20 19 19 20 17 13 13 15 13 12 9 8 6 8 9 10 11 13 15 15 15 16 16 20 20 21 24
21 16 12 19 16 16 20 20 18 19 20 17 14 15 16 15 13 10 9 9 10 10 11 11 13 14 15 15 18 19 20 23 23
25 22 18 17 13 19 19 18 20 19 20 21 19 16 17 18 17 15 12 11 11 11 11 11 12 13 15 17 18 20 21 23 22
29 27 23 18 14 17 20 21 20 20 21 22 23 20 17 19 20 19 17 15 14 13 13 12 13 15 16 18 19 21 23 24 22
36 32 29 25 23 21 25 23 21 22 22 24 23 24 21 19 20 21 21 19 18 16 15 15 16 17 18 19 21 22 24 24 23
41 37 33 32 27 27 25 25 22 20 23 25 25 26 27 23 22 23 23 23 22 20 19 18 19 20 21 21 23 23 25 25 25
47 43 38 36 34 31 31 28 24 21 24 26 28 27 28 27 25 24 25 26 25 23 22 21 22 23 25 23 25 27 26 26 26
50 48 43 41 38 39 32 29 28 32 28 30 29 31 30 30 27 26 27 27 27 26 25 25 25 25 27 28 27 28 29 29 28
53 51 49 45 46 41 35 34 36 28 29 31 34 32 31 31 30 29 28 28 28 28 28 28 28 28 29 30 30 29 30 32 31
58 56 54 51 50 45 40 34 36 32 32 38 36 31 31 31 32 33 30 29 30 31 31 32 31 31 31 32 31 31 31 32 32
61 61 57 55 52 48 45 40 38 34 36 37 38 35 34 36 36 36 34 32 32 32 33 34 35 35 35 35 34 32 33 33 33
65 62 61 58 56 52 50 44 38 40 37 38 37 38 36 34 41 36 36 37 35 34 34 36 36 37 38 37 37 35 35 33 33
69 63 63 62 60 55 53 48 45 42 40 41 41 37 43 45 45 39 41 41 37 36 36 37 39 40 40 39 39 38 37 35 35
75 69 65 64 63 59 55 51 50 46 43 43 35 42 41 41 53 44 42 42 40 39 38 39 40 41 41 42 40 40 40 37 36
80 75 70 66 65 63 58 55 53 51 47 43 40 38 43 41 46 52 46 45 46 43 42 41 42 42 42 42 43 42 41 40 38

GFSFLT1_500_spd_147.txt.gz
Wind_Speed
17 14 14 15 13 12 13 10 9 10 10 8 5 2 1 4 3 1 3 5 7 9 10 10 11 11 13 15 16 17 18 21 20
16 19 18 15 16 14 14 15 12 11 12 12 9 5 3 2 3 4 3 4 6 9 11 12 13 14 15 16 17 18 18 21 21
22 21 20 17 16 16 15 16 17 14 13 14 13 10 7 5 4 4 5 5 6 9 11 12 14 15 16 18 19 19 18 21 21
19 16 17 20 17 16 17 17 18 18 15 15 15 15 11 8 7 6 6 6 7 8 9 12 13 15 16 18 19 20 19 20 21
18 18 14 11 17 18 18 19 18 19 17 15 16 16 16 12 10 7 8 7 8 9 9 10 12 14 16 17 18 19 20 19 21
21 18 16 15 12 13 19 21 21 20 20 17 15 17 18 17 14 10 9 9 9 9 10 10 11 12 14 15 16 18 18 19 22
24 21 18 17 18 18 18 22 23 22 20 21 18 17 18 19 18 15 12 12 11 11 11 11 12 12 13 14 16 17 19 19 22
27 26 21 21 22 17 19 21 21 22 22 21 21 20 18 19 20 20 18 15 14 13 13 12 13 13 14 16 18 17 20 21 22
32 28 27 24 22 21 19 20 20 21 23 23 22 22 22 19 20 21 22 20 18 17 16 16 15 16 16 16 18 19 19 22 22
37 35 30 29 27 24 24 22 21 21 24 24 24 24 24 22 20 22 23 24 23 21 20 19 19 19 19 18 19 21 21 22 23
43 39 36 34 32 31 27 27 26 22 23 22 24 27 27 26 25 23 24 25 25 25 24 22 22 22 22 22 23 22 23 22 24
50 46 42 39 37 37 34 31 29 29 25 24 26 24 28 29 28 27 25 26 27 27 27 26 25 25 25 25 26 25 25 25 25
56 52 48 45 43 40 38 36 32 31 30 30 28 28 27 29 29 31 30 27 27 29 29 28 28 28 28 27 27 28 27 27 27
60 57 54 51 49 46 43 41 37 36 34 36 32 32 30 30 30 32 33 31 29 29 31 32 31 32 31 30 30 29 29 28 28
64 62 60 57 55 50 46 43 43 41 39 39 35 30 33 32 31 32 34 35 32 31 32 34 34 35 34 34 32 31 30 30 30
70 67 66 63 59 56 51 49 48 47 42 40 35 35 37 32 34 32 35 37 38 35 34 36 37 35 36 36 36 34 33 32 31
80 75 69 67 64 61 58 54 53 50 46 42 42 39 37 30 32 36 37 41 42 40 38 37 38 38 38 38 39 37 36 34 32
82 79 74 72 67 65 63 58 57 54 50 47 45 44 38 35 35 38 40 36 42 46 42 40 39 40 40 39 41 40 38 36 35
82 84 82 77 71 67 66 63 59 57 55 51 50 45 43 39 38 40 36 36 42 45 48 44 43 42 41 41 41 42 40 38 37
84 83 85 83 76 71 68 65 62 60 57 55 51 49 49 45 39 36 38 43 43 46 52 48 47 44 43 42 43 43 42 40 38

GFSFLT1_500_spd_153.txt.gz
Wind_Speed
15 13 13 15 14 13 13 11 10 12 10 11 12 10 8 7 5 5 6 6 6 8 9 10 11 11 11 10 11 12 13 14 15
13 15 14 12 14 14 14 14 13 12 14 12 13 13 12 10 8 7 7 8 7 7 9 10 12 12 12 12 12 12 12 12 14
14 15 15 17 15 13 14 16 16 14 14 16 13 14 14 13 12 10 8 7 8 8 9 10 11 12 12 12 11 11 11 12 13
16 16 16 15 12 11 14 15 16 17 16 16 16 14 16 16 15 13 12 9 8 9 9 9 11 11 12 12 12 10 10 11 13
21 19 18 17 14 10 8 14 18 18 18 17 17 16 16 17 18 15 14 13 11 10 10 11 11 11 12 11 10 11 10 10 12
25 24 22 19 18 16 15 12 13 18 22 21 19 19 18 17 19 19 18 16 14 13 12 12 12 12 12 12 11 10 11 12 13
30 28 26 25 21 20 20 19 16 16 18 23 22 20 21 20 19 19 19 19 18 16 15 15 14 13 14 12 12 11 12 12 13
34 31 29 26 26 24 23 23 20 20 19 20 20 22 21 23 22 20 20 21 21 20 19 18 16 16 16 14 13 13 13 13 13
38 36 34 32 30 29 26 27 27 23 21 19 20 20 22 21 24 24 22 21 22 23 23 23 22 20 19 18 16 16 15 15 16
41 40 40 37 35 34 32 30 30 27 23 22 22 21 22 21 24 23 24 24 23 24 25 26 25 24 23 21 19 18 18 18 18
46 44 44 43 41 39 37 35 33 32 29 26 27 24 24 22 25 25 24 25 27 27 26 26 27 26 25 24 23 21 20 20 20
53 51 48 47 45 45 42 41 39 36 36 32 30 31 29 26 24 24 25 26 28 29 29 26 26 26 26 27 26 24 23 22 22
61 58 56 52 50 49 47 45 44 42 40 38 35 34 33 31 28 26 24 24 26 29 30 30 29 28 27 26 27 25 26 25 24
61 61 62 61 56 56 52 51 48 47 44 42 41 40 36 35 32 29 30 29 29 29 30 32 32 33 31 29 27 26 26 27 27
67 64 62 63 65 63 58 54 52 50 48 46 46 45 43 40 37 33 31 33 30 30 30 30 33 34 33 30 29 29 27 28 29
73 72 69 67 65 66 66 63 56 50 50 49 49 49 48 46 42 36 35 35 36 32 32 33 33 34 34 32 32 33 31 30 30
78 77 77 73 72 70 67 69 68 65 59 55 54 51 50 50 44 42 40 37 39 34 32 31 33 33 35 35 34 36 39 36 33
86 84 82 81 78 76 73 69 71 72 68 64 60 59 56 49 47 47 44 43 41 37 34 33 31 32 36 32 34 37 36 40 36
95 91 90 88 85 82 79 75 72 72 74 71 69 66 64 59 52 50 48 47 47 43 39 35 36 35 36 30 33 39 38 36 36
88 91 95 95 91 88 84 81 78 75 74 74 73 70 69 63 59 54 50 49 50 50 47 42 41 36 33 37 34 36 40 33 32

GFSFLT1_500_spd_156.txt.gz
Wind_Speed
13 10 8 10 9 13 12 12 11 11 12 11 13 12 10 9 9 7 7 7 9 10 11 11 12 11 12 12 11 11 10 11 11
14 14 12 11 14 17 14 14 13 12 14 15 12 13 14 13 11 10 7 7 7 9 10 10 11 12 13 13 12 11 10 9 10
17 16 16 15 14 13 13 16 15 15 13 15 16 13 14 15 16 14 11 10 9 8 8 10 11 10 11 12 12 11 9 10 10
20 20 18 19 17 13 13 13 18 15 14 14 16 18 15 16 17 16 15 13 11 10 9 9 9 11 11 11 10 10 9 8 10
23 22 22 21 20 18 16 13 13 17 17 16 16 17 19 19 18 19 17 17 15 12 11 11 11 10 10 11 10 9 8 9 9
27 27 26 24 24 21 20 19 16 14 17 19 19 20 19 20 20 20 20 19 17 16 15 13 13 12 11 11 10 9 10 9 10
30 29 29 29 27 25 23 22 21 19 19 20 20 21 22 22 21 21 20 21 20 19 19 18 17 15 13 12 12 10 11 11 11
34 34 33 32 31 28 26 26 27 24 22 20 20 19 21 24 23 23 21 20 20 22 21 21 21 20 17 15 14 14 13 12 12
38 37 37 37 35 33 31 30 30 29 28 27 23 21 20 23 24 24 25 25 22 20 21 23 23 24 22 19 18 17 16 15 15
44 43 42 40 40 39 37 36 34 32 33 30 28 25 23 23 25 25 26 25 26 26 25 24 23 24 24 22 21 20 19 18 17
51 51 49 48 46 43 42 41 40 37 35 35 33 30 27 27 26 26 27 27 27 27 28 28 27 24 23 23 22 22 21 21 21
54 55 55 54 53 50 49 46 44 43 41 38 39 36 33 31 32 29 28 27 28 28 29 30 29 29 27 24 23 23 23 23 22
55 55 55 54 55 57 55 53 50 48 46 44 42 43 39 36 35 33 32 29 28 28 26 26 28 29 30 29 27 23 24 24 24
58 58 58 57 56 56 56 57 56 54 51 47 45 46 47 41 38 38 37 35 32 31 31 30 30 29 29 30 29 27 23 23 23
66 65 64 64 64 62 60 58 57 58 56 53 50 51 50 49 44 42 41 39 37 36 35 33 31 31 31 29 28 29 27 25 25
72 73 72 70 71 69 67 65 63 60 59 58 57 53 51 51 51 46 44 43 42 40 37 37 36 33 32 31 30 28 28 26 28
74 75 76 76 75 75 74 72 70 67 65 66 62 57 56 57 55 50 48 46 47 44 42 42 38 35 32 29 30 29 29 30 28
83 84 83 83 81 80 79 78 77 74 71 70 72 71 60 57 57 52 51 51 51 50 47 45 40 38 35 35 32 31 25 29 32
75 78 78 85 91 89 86 83 81 80 78 75 74 76 76 71 64 59 58 52 53 52 49 48 47 43 40 38 35 34 33 27 31
60 62 64 72 76 81 92 91 86 86 84 81 78 78 78 78 78 73 60 56 51 49 51 50 52 48 46 42 40 36 35 40 36

GFSFLT1_500_spd_159.txt.gz
Wind_Speed
14 12 12 12 8 11 14 13 14 11 12 12 8 12 14 13 11 9 8 9 8 8 9 11 13 13 13 12 13 12 11 10 9
13 14 15 15 16 17 15 14 15 15 13 14 14 10 12 13 14 13 12 10 9 9 9 9 10 11 12 12 12 11 9 8 9
14 15 16 17 19 19 18 17 16 17 17 16 15 16 13 12 15 15 15 14 12 11 10 9 10 10 10 11 11 10 8 7 8
17 18 17 18 20 21 21 20 18 16 17 16 15 16 17 17 14 17 17 16 15 14 12 11 9 10 10 10 11 10 8 7 7
20 21 21 21 22 22 23 23 22 17 15 18 19 18 18 18 19 17 18 19 18 17 15 14 12 11 10 11 10 10 9 9 8
25 25 25 25 25 25 25 25 25 24 19 16 19 22 22 20 20 21 20 18 20 20 19 18 16 14 12 11 10 10 10 9 9
29 29 29 29 29 29 28 27 27 26 24 21 20 22 22 23 24 24 24 22 19 21 21 21 20 18 16 14 14 12 11 12 11
33 33 32 31 31 32 32 32 31 29 27 26 24 24 24 24 23 25 25 26 23 20 21 23 23 22 21 19 17 16 15 14 14
38 37 37 35 35 34 34 34 35 35 32 30 28 29 30 27 25 24 26 25 26 26 24 21 22 23 24 23 22 20 19 18 17
44 43 43 42 41 40 40 39 39 39 38 35 33 32 32 32 29 26 25 27 27 26 27 28 27 25 23 23 23 23 22 21 20
50 49 49 50 50 48 47 47 45 44 42 40 38 37 35 34 33 30 29 28 28 28 28 28 29 30 29 26 23 23 23 23 24
52 52 52 52 53 53 52 51 51 50 48 45 44 43 40 37 37 36 34 32 32 30 29 29 30 30 29 27 27 26 25 23 24
52 52 52 51 52 53 54 52 52 52 52 51 49 48 47 44 41 41 39 37 35 34 32 30 29 27 27 27 27 28 27 26 24
57 56 56 57 57 56 56 54 54 53 53 52 53 53 53 50 48 45 43 43 41 38 36 35 33 33 30 29 28 27 27 28 28
65 64 63 63 64 63 62 61 60 57 55 54 57 56 56 57 54 50 49 45 46 43 42 40 38 38 35 32 29 29 27 26 27
70 71 70 68 68 68 68 67 67 65 63 60 57 48 59 60 59 56 53 48 48 49 48 45 42 42 39 35 33 32 31 30 27
75 75 75 74 73 72 71 71 71 71 69 68 66 68 54 60 60 59 53 50 54 53 52 50 46 45 45 41 38 36 32 30 27
76 77 78 78 79 78 77 77 77 76 75 74 73 73 72 70 63 57 61 57 52 51 54 54 51 49 48 46 40 38 37 34 28
79 82 83 83 85 86 85 86 86 85 82 82 80 78 76 74 73 68 65 61 60 57 58 51 55 54 52 52 46 40 40 37 35
68 73 73 71 73 76 80 81 84 83 84 86 87 83 82 80 78 76 75 69 67 52 56 59 50 56 57 55 49 47 45 41 39